Flag for Turkmenistan Weather past 2 weeks in Ashgabat, Turkmenistan

Now
79 °F

Sunny.


Feels Like: 77 °F
Forecast: 63 / 89 °F
Wind: 10 mph from East

Location: Ashgabat

Current Time: Sep 20, 2014 at 9:56:41 PM

Latest Report: Sep 20, 2014 at 6:00 PM


Visibility: N/A

Pressure: 29.98 "Hg

Humidity: 12%

Dew point: 21 °F

Location of AshgabatLocation

Historic Weather in Ashgabat — Graph

°F

Ashgabat temperature yesterday

Maximum temperature yesterday: 82 °F (at 3:30 PM)
Minimum temperature yesterday: 63 °F (at 6:30 AM)
Average temperature yesterday: 73 °F

Past Weeks' High & Low Weather Summary

 TemperatureHumidityPressure
High97 °F (Sep 9, 3:00 PM)57% (Sep 15, 5:00 AM)30.24 "Hg (Sep 15, 5:00 AM)
Low57 °F (Sep 20, 7:00 AM)6% (Sep 10, 2:00 PM)29.65 "Hg (Sep 5, 6:00 PM)
Average79 °F22%29.91 "Hg
* Reported Sep 5 6:00 PM — Sep 20 6:00 PM, Ashgabat, Weather by CustomWeather, © 2014

Note: Actual official high and low records may vary slightly from our data, if they occured in-between our weather recording intervals... More about our weather records

Advertising

Ashgabat weather history for previous 24 hours

 ConditionsComfort  
Time TempWeatherWind HumidityBarometerVisibility
6:00 PM
Sep 20
79 °FSunny.10 mph12%29.98 "HgN/A
5:00 PM79 °FPassing clouds.10 mph10%29.98 "HgN/A
4:00 PM81 °FSunny.10 mph11%30.01 "HgN/A
3:00 PM79 °FSunny.8 mph12%30.01 "HgN/A
2:00 PM77 °FSunny.8 mph13%30.04 "HgN/A
1:00 PM73 °FSunny.8 mph15%30.07 "HgN/A
12:00 PM72 °FSunny.8 mph17%30.09 "HgN/A
11:00 AM68 °FSunny.8 mph18%30.12 "HgN/A
10:00 AM64 °FSunny.10 mph21%30.12 "HgN/A
9:00 AM61 °FSunny.13 mph23%30.12 "HgN/A
8:00 AM59 °FSunny.8 mph25%30.12 "HgN/A
7:00 AM57 °FClear.8 mph27%30.12 "HgN/A
6:00 AM61 °FClear.10 mph22%30.09 "HgN/A
5:00 AM63 °FClear.13 mph19%30.09 "HgN/A
4:00 AM64 °FClear.10 mph19%30.07 "HgN/A
3:00 AM66 °FClear.13 mph15%30.07 "HgN/A
2:00 AM66 °FClear.15 mph15%30.07 "HgN/A
1:00 AM68 °FClear.15 mph16%30.09 "HgN/A
12:00 AM68 °FClear.15 mph16%30.09 "HgN/A
11:00 PM
Sep 19
70 °FClear.13 mph18%30.12 "HgN/A
10:00 PM70 °FClear.13 mph21%30.12 "HgN/A
9:00 PM72 °FClear.10 mph20%30.12 "HgN/A
Weather by CustomWeather, © 2014

See weather overviewHow to use our weather pages